User: anonymous   Login
Location: Unspecified
(0.0000°N, 0.0000°E)
Time: 11:45:52
(UTC+02:00)
Language:

ASC 2 Rocket - Orbit

View from above orbital plane
View from above orbital plane
View from above satellite
View from above satellite

Ground track
Ground track

The orbit data is extracted from the following two-line orbital elements,

1 21228U 91028B   16212.89786433  .00000137  00000-0 -38129-5 0  9995
2 21228  23.9945  95.7427 1143230   4.8270  72.1327 12.53262583157448
Epoch (UTC): 30 July 2016 21:32:55
Eccentricity: 0.1143230
inclination: 23.9945°
perigee height: 556 km
apogee height: 2346 km
right ascension of ascending node: 95.7427°
argument of perigee: 4.8270°
revolutions per day: 12.53262583
mean anomaly at epoch: 72.1327°
orbit number at epoch: 15744

The dashed part of the orbit path shows where the satellite is in the earth's shadow,  

DLR